Weather History for KWVL - April, 2014

Change the Weather History Date:

Wednesday, April 2, 2014

  Actual Average Record
Temperature  
Mean Temperature 36 °F -  
Max Temperature 46 °F 49 °F 69 °F (1967)
Min Temperature 26 °F 28 °F 10 °F (1964)
Degree Days  
Heating Degree Days 29    
Moisture  
Dew Point 12 °F    
Average Humidity 41    
Maximum Humidity 86    
Minimum Humidity 23    
Precipitation  
Precipitation 0.00 in - - ()
Sea Level Pressure  
Sea Level Pressure 30.04 in    
Wind  
Wind Speed 6 mph (ESE)    
Max Wind Speed 10 mph    
Max Gust Speed -    
Visibility 10 miles    
Events      
Averages and records for this station are not official NWS values.
T = Trace of Precipitation, MM = Missing Value Source: NWS Daily Summary

Daily Weather History Graph

Daily Weather History Graph

Search for Another Location

Airport or City:

Trip Planner

Search our weather history database for the weather conditions in past years. The results will help you decide how hot, cold, wet, or windy it might be!

Date:

Astronomy

Apr. 02, 2014 Rise Set
Actual Time 6:17 AM EDT 7:07 PM EDT
Civil Twilight 5:48 AM EDT 7:36 PM EDT
Nautical Twilight 5:13 AM EDT 8:12 PM EDT
Astronomical Twilight 4:36 AM EDT 8:48 PM EDT
Moon 7:53 AM EDT (4/2) 10:34 PM EDT (4/2)
Length of Visible Light 13h 48m
Length of Day
12h 49m
Waxing Crescent, 10% of the Moon is Illuminated
Apr 2
Waxing Crescent
Apr 7
First Quarter
Apr 15
Full
Apr 22
Last Quarter
Apr 29
New

Hourly Weather History & Observations

Time (EDT) Temp. Windchill Dew Point Humidity Pressure Visibility Wind Dir Wind Speed Gust Speed Precip Events Conditions
12:15 AM 37.4 °F 30.3 °F 6.8 °F 28% 30.05 in 10.0 mi NNE 10.4 mph - N/A   Clear
12:35 AM 37.4 °F 31.4 °F 6.8 °F 28% 30.06 in 10.0 mi NE 8.1 mph - N/A   Clear
12:55 AM 35.6 °F 29.2 °F 6.8 °F 30% 30.05 in 10.0 mi NNE 8.1 mph - N/A   Clear
1:15 AM 35.6 °F 29.2 °F 6.8 °F 30% 30.06 in 10.0 mi NNE 8.1 mph - N/A   Clear
1:35 AM 35.6 °F 29.9 °F 6.8 °F 30% 30.05 in 10.0 mi NNE 6.9 mph - N/A   Clear
1:55 AM 33.8 °F 28.6 °F 6.8 °F 32% 30.05 in 10.0 mi NNE 5.8 mph - N/A   Clear
2:15 AM 32.0 °F 26.4 °F 6.8 °F 35% 30.06 in 10.0 mi North 5.8 mph - N/A   Clear
2:35 AM 30.2 °F 23.4 °F 10.4 °F 44% 30.06 in 10.0 mi North 6.9 mph - N/A   Clear
2:55 AM 30.2 °F 22.6 °F 8.6 °F 40% 30.06 in 10.0 mi North 8.1 mph - N/A   Clear
3:15 AM 28.4 °F 20.4 °F 8.6 °F 43% 30.05 in 10.0 mi North 8.1 mph - N/A   Clear
3:35 AM 30.2 °F 21.9 °F 6.8 °F 37% 30.06 in 10.0 mi NNE 9.2 mph - N/A   Clear
3:55 AM 28.4 °F 19.1 °F 6.8 °F 40% 30.06 in 10.0 mi NNE 10.4 mph - N/A   Clear
4:15 AM 30.2 °F 22.6 °F 3.2 °F 32% 30.06 in 10.0 mi NNE 8.1 mph - N/A   Clear
4:35 AM 30.2 °F 22.6 °F 3.2 °F 32% 30.06 in 10.0 mi NNE 8.1 mph - N/A   Clear
4:55 AM 28.4 °F 22.2 °F 5.0 °F 37% 30.07 in 10.0 mi North 5.8 mph - N/A   Clear
5:15 AM 28.4 °F 20.4 °F 5.0 °F 37% 30.06 in 10.0 mi NNE 8.1 mph - N/A   Clear
5:35 AM 26.6 °F 18.2 °F 6.8 °F 43% 30.07 in 10.0 mi North 8.1 mph - N/A   Clear
5:55 AM 28.4 °F 21.2 °F 6.8 °F 40% 30.08 in 10.0 mi NNW 6.9 mph - N/A   Clear
6:15 AM 28.4 °F 21.2 °F 5.0 °F 37% 30.08 in 10.0 mi NNW 6.9 mph - N/A   Clear
6:35 AM 28.4 °F 22.2 °F 5.0 °F 37% 30.09 in 10.0 mi North 5.8 mph - N/A   Clear
6:55 AM 28.4 °F 22.2 °F 6.8 °F 40% 30.08 in 10.0 mi North 5.8 mph - N/A   Clear
7:15 AM 28.4 °F 23.3 °F 6.8 °F 40% 30.08 in 10.0 mi North 4.6 mph - N/A   Clear
8:55 AM 32.0 °F 27.5 °F 6.8 °F 35% 30.08 in 10.0 mi ENE 4.6 mph - N/A   Clear
9:15 AM 33.8 °F 28.6 °F 6.8 °F 32% 30.08 in 10.0 mi NNE 5.8 mph - N/A   Clear
9:35 AM 33.8 °F 28.6 °F 6.8 °F 32% 30.07 in 10.0 mi NNE 5.8 mph - N/A   Clear
9:55 AM 33.8 °F 28.6 °F 6.8 °F 32% 30.05 in 10.0 mi ENE 5.8 mph - N/A   Clear
10:15 AM 33.8 °F - 8.6 °F 35% 30.06 in 10.0 mi Calm Calm - N/A   Clear
10:35 AM 35.6 °F - 8.6 °F 33% 30.07 in 10.0 mi Calm Calm - N/A   Clear
10:55 AM 35.6 °F - 8.6 °F 33% 30.08 in 10.0 mi Calm Calm - N/A   Clear
11:15 AM 37.4 °F - 8.6 °F 30% 30.07 in 10.0 mi Calm Calm - N/A   Clear
11:35 AM 37.4 °F - 8.6 °F 30% 30.06 in 10.0 mi Calm Calm - N/A   Clear
11:55 AM 39.2 °F - 8.6 °F 28% 30.05 in 10.0 mi Calm Calm - N/A   Clear
12:15 PM 41.0 °F 38.0 °F 8.6 °F 26% 30.04 in 10.0 mi NW 4.6 mph - N/A   Clear
12:35 PM 42.8 °F - 10.4 °F 27% 30.04 in 10.0 mi Calm Calm - N/A   Clear
12:55 PM 42.8 °F - 10.4 °F 27% 30.03 in 10.0 mi Calm Calm - N/A   Clear
1:15 PM 42.8 °F - 8.6 °F 25% 30.02 in 10.0 mi Calm Calm - N/A   Clear
1:55 PM 42.8 °F 40.1 °F 10.4 °F 27% 30.02 in 10.0 mi South 4.6 mph - N/A   Clear
2:15 PM 42.8 °F 39.3 °F 8.6 °F 25% 30.01 in 10.0 mi SW 5.8 mph - N/A   Clear
2:35 PM 44.6 °F 41.4 °F 8.6 °F 23% 30.00 in 10.0 mi South 5.8 mph - N/A   Clear
2:55 PM 44.6 °F 41.4 °F 8.6 °F 23% 29.99 in 10.0 mi SSE 5.8 mph - N/A   Clear
3:15 PM 44.6 °F 42.2 °F 8.6 °F 23% 29.99 in 10.0 mi SSE 4.6 mph - N/A   Clear
3:35 PM 46.4 °F 43.5 °F 10.4 °F 23% 29.98 in 10.0 mi SSE 5.8 mph - N/A   Clear
3:55 PM 46.4 °F 43.5 °F 10.4 °F 23% 29.99 in 10.0 mi South 5.8 mph - N/A   Clear
4:15 PM 46.4 °F 42.9 °F 10.4 °F 23% 29.98 in 10.0 mi South 6.9 mph - N/A   Clear
4:35 PM 44.6 °F 40.2 °F 17.6 °F 34% 29.98 in 10.0 mi SSE 8.1 mph - N/A   Clear
4:55 PM 44.6 °F 41.4 °F 17.6 °F 34% 29.98 in 10.0 mi South 5.8 mph - N/A   Clear
5:15 PM 42.8 °F 37.5 °F 19.4 °F 39% 29.99 in 10.0 mi South 9.2 mph - N/A   Clear
5:35 PM 42.8 °F 38.0 °F 19.4 °F 39% 29.99 in 10.0 mi South 8.1 mph - N/A   Clear
5:55 PM 41.0 °F 37.1 °F 21.2 °F 45% 29.99 in 10.0 mi South 5.8 mph - N/A   Clear
6:15 PM 41.0 °F 38.0 °F 19.4 °F 42% 29.99 in 10.0 mi South 4.6 mph - N/A   Clear
6:35 PM 39.2 °F 37.0 °F 19.4 °F 45% 30.00 in 10.0 mi South 3.5 mph - N/A   Clear
6:55 PM 37.4 °F 33.8 °F 21.2 °F 52% 30.00 in 10.0 mi South 4.6 mph - N/A   Clear
7:15 PM 37.4 °F 34.9 °F 21.2 °F 52% 30.01 in 10.0 mi SSE 3.5 mph - N/A   Clear
7:35 PM 35.6 °F - 21.2 °F 56% 30.01 in 10.0 mi Calm Calm - N/A   Clear
7:55 PM 35.6 °F 31.7 °F 21.2 °F 56% 30.01 in 10.0 mi South 4.6 mph - N/A   Clear
8:15 PM 33.8 °F 30.8 °F 21.2 °F 60% 30.02 in 10.0 mi South 3.5 mph - N/A   Clear
8:35 PM 33.8 °F 30.8 °F 21.2 °F 60% 30.03 in 10.0 mi SSE 3.5 mph - N/A   Clear
8:55 PM 33.8 °F 30.8 °F 21.2 °F 60% 30.04 in 10.0 mi South 3.5 mph - N/A   Clear
9:15 PM 32.0 °F 27.5 °F 21.2 °F 64% 30.03 in 10.0 mi South 4.6 mph - N/A   Clear
9:35 PM 32.0 °F 25.6 °F 21.2 °F 64% 30.03 in 10.0 mi South 6.9 mph - N/A   Clear
9:55 PM 30.2 °F 24.3 °F 23.0 °F 75% 30.03 in 10.0 mi South 5.8 mph - N/A   Clear
10:15 PM 30.2 °F 25.4 °F 23.0 °F 75% 30.03 in 10.0 mi SSW 4.6 mph - N/A   Clear
10:35 PM 30.2 °F 26.7 °F 23.0 °F 75% 30.02 in 10.0 mi South 3.5 mph - N/A   Clear
10:55 PM 30.2 °F 26.7 °F 23.0 °F 75% 30.02 in 10.0 mi SSW 3.5 mph - N/A   Clear
11:15 PM 30.2 °F 26.7 °F 24.8 °F 80% 30.02 in 10.0 mi South 3.5 mph - N/A   Clear
11:35 PM 28.4 °F 24.6 °F 24.8 °F 86% 30.02 in 10.0 mi South 3.5 mph - N/A   Clear